Phnom Penh, Cambodia

3:53 AM +07 on August 22, 2017 (GMT +0700)
Pochentong International

Weather History for VDPP - November, 2012

Change the Weather History Date:

Wednesday, November 7, 2012

  Actual Average Record
Temperature  
Mean Temperature 83 °F -  
Max Temperature 89 °F 84 °F 91 °F (2015)
Min Temperature 77 °F 75 °F 71 °F (2000)
Cooling Degree Days 18    
Growing Degree Days 33 (Base 50)    
Moisture  
Dew Point 74 °F    
Average Humidity 73    
Maximum Humidity 89    
Minimum Humidity 55    
Precipitation  
Precipitation 0.00 in - - ()
Sea Level Pressure  
Sea Level Pressure 29.82 in    
Wind  
Wind Speed 3 mph ()    
Max Wind Speed 9 mph    
Max Gust Speed -    
Visibility 5.9 miles    
Events Fog , Rain    
Averages and records for this station are not official NWS values.
T = Trace of Precipitation, MM = Missing Value Source: Averaged Metar Reports

Daily Weather History Graph

Daily Weather History Graph

Search for Another Location

Airport or City:

Trip Planner

Search our weather history database for the weather conditions in past years. The results will help you decide how hot, cold, wet, or windy it might be!

Date:

Astronomy

Nov. 07, 2012 Rise Set
Actual Time 5:54 AM +07 5:33 PM +07
Civil Twilight 5:32 AM +07 5:55 PM +07
Nautical Twilight 5:07 AM +07 6:21 PM +07
Astronomical Twilight 4:41 AM +07 6:46 PM +07
Moon No Moon Rise 12:14 PM +07 (11/7)
Length of Visible Light 12h 23m
Length of Day
11h 39m
Waning Gibbous, 48% of the Moon is Illuminated
Nov 7
Waning Gibbous
Nov 14
New
Nov 20
First Quarter
Nov 28
Full
Dec 6
Last Quarter

Hourly Weather History & Observations

Time (+07) Temp. Heat Index Dew Point Humidity Pressure Visibility Wind Dir Wind Speed Gust Speed Precip Events Conditions
12:00 AM 80.6 °F 86.2 °F 75.2 °F 84% 29.86 in 5.6 mi WSW 2.3 mph - N/A   Scattered Clouds
12:30 AM 80.6 °F 86.2 °F 75.2 °F 84% 29.86 in 5.6 mi WSW 4.6 mph - N/A   Scattered Clouds
1:00 AM 80.6 °F 86.2 °F 75.2 °F 84% 29.86 in 5.6 mi WSW 4.6 mph - N/A   Scattered Clouds
6:00 AM 78.8 °F - 75.2 °F 89% 29.86 in 6.2 mi West 3.5 mph - N/A   Partly Cloudy
7:00 AM 82 °F - 77 °F 81% 29.86 in 3 mi Calm Calm - - Fog Patches of Fog
7:00 AM 80.6 °F 86.2 °F 75.2 °F 84% 29.86 in 5.6 mi NNW 2.3 mph - N/A   Scattered Clouds
7:30 AM 80.6 °F 85.4 °F 73.4 °F 79% 29.86 in 5.6 mi WNW 3.5 mph - N/A   Scattered Clouds
8:00 AM 80.6 °F 86.2 °F 75.2 °F 84% 29.89 in 5.6 mi NW 3.5 mph - N/A   Scattered Clouds
8:30 AM 82.4 °F 89.5 °F 75.2 °F 79% 29.89 in 6.2 mi WSW 2.3 mph - N/A   Scattered Clouds
9:00 AM 84.2 °F 92.3 °F 75.2 °F 74% 29.89 in 6.2 mi South 5.8 mph - N/A   Scattered Clouds
9:30 AM 86.0 °F 93.4 °F 73.4 °F 66% 29.89 in 6.2 mi SSE 3.5 mph - N/A   Scattered Clouds
10:00 AM 86.0 °F 93.4 °F 73.4 °F 66% 29.89 in 6.2 mi NW 6.9 mph - N/A   Scattered Clouds
10:30 AM 86.0 °F 93.4 °F 73.4 °F 66% 29.89 in 6.2 mi West 8.1 mph - N/A   Scattered Clouds
11:00 AM 87.8 °F 93.8 °F 71.6 °F 58% 29.86 in 6.2 mi WNW 4.6 mph - N/A   Scattered Clouds
11:30 AM 89.6 °F 98.2 °F 73.4 °F 59% 29.86 in 6.2 mi WSW 1.2 mph - N/A   Scattered Clouds
12:00 PM 89.6 °F 96.2 °F 71.6 °F 55% 29.83 in 6.2 mi West 4.6 mph - N/A   Scattered Clouds
12:30 PM 89.6 °F 98.2 °F 73.4 °F 59% 29.83 in 6.2 mi North 8.1 mph - N/A   Scattered Clouds
1:00 PM 87.8 °F 95.6 °F 73.4 °F 62% 29.80 in 6.2 mi ENE 4.6 mph - N/A   Mostly Cloudy
1:30 PM 87.8 °F 93.8 °F 71.6 °F 58% 29.80 in 6.2 mi SSW 3.5 mph - N/A   Mostly Cloudy
2:00 PM 89.6 °F 96.2 °F 71.6 °F 55% 29.77 in 6.2 mi WNW 2.3 mph - N/A   Mostly Cloudy
2:30 PM 84.2 °F 90.9 °F 73.4 °F 70% 29.77 in 3.7 mi WSW 9.2 mph - N/A Rain Rain Showers
3:00 PM 86.0 °F 93.4 °F 73.4 °F 66% 29.77 in 5.6 mi WNW 4.6 mph - N/A Rain Rain
3:30 PM 86.0 °F 93.4 °F 73.4 °F 66% 29.74 in 6.2 mi WNW 5.8 mph - N/A   Mostly Cloudy
4:00 PM 87.8 °F 95.6 °F 73.4 °F 62% 29.74 in 5.6 mi ENE 2.3 mph - N/A Rain Rain
4:30 PM 87.8 °F 95.6 °F 73.4 °F 62% 29.74 in 5.6 mi SSE 2.3 mph - N/A Rain Rain
5:00 PM 86.0 °F 95.1 °F 75.2 °F 70% 29.74 in 6.2 mi SSE 4.6 mph - N/A   Partly Cloudy
5:30 PM 84.2 °F 92.3 °F 75.2 °F 74% 29.77 in 6.2 mi SSE 5.8 mph - N/A   Partly Cloudy
6:00 PM 84.2 °F 92.3 °F 75.2 °F 74% 29.77 in 6.2 mi SSW 2.3 mph - N/A   Partly Cloudy
6:30 PM 82.4 °F 89.5 °F 75.2 °F 79% 29.77 in 5.6 mi SSW 3.5 mph - N/A   Scattered Clouds
7:00 PM 84.2 °F 92.3 °F 75.2 °F 74% 29.80 in 5.6 mi Calm Calm - N/A   Scattered Clouds
7:30 PM 82.4 °F 89.5 °F 75.2 °F 79% 29.80 in 5.6 mi WSW 2.3 mph - N/A   Scattered Clouds
8:00 PM 82.4 °F 89.5 °F 75.2 °F 79% 29.83 in 5.6 mi WSW 2.3 mph - N/A   Scattered Clouds
8:30 PM 82.4 °F 89.5 °F 75.2 °F 79% 29.83 in 6.2 mi SW 2.3 mph - N/A   Scattered Clouds
9:00 PM 82.4 °F 89.5 °F 75.2 °F 79% 29.83 in 6.2 mi South 1.2 mph - N/A   Scattered Clouds
9:30 PM 82.4 °F 89.5 °F 75.2 °F 79% 29.83 in 6.2 mi SSW 2.3 mph - N/A   Scattered Clouds
10:00 PM 82.4 °F 89.5 °F 75.2 °F 79% 29.83 in 6.2 mi South 2.3 mph - N/A   Scattered Clouds
10:30 PM 82.4 °F 89.5 °F 75.2 °F 79% 29.83 in 6.2 mi SSW 2.3 mph - N/A   Scattered Clouds
11:00 PM 82.4 °F 89.5 °F 75.2 °F 79% 29.83 in 6.2 mi WSW 2.3 mph - N/A   Scattered Clouds
11:30 PM 82.4 °F 89.5 °F 75.2 °F 79% 29.83 in 6.2 mi South 2.3 mph - N/A   Scattered Clouds